Weather History for Mytilini, Greece

Change the Weather History Date:

Monday, April 16, 2012

  Actual Average Record
Temperature  
Mean Temperature 64 °F -  
Max Temperature 70 °F 71 °F 75 °F (1999)
Min Temperature 59 °F 56 °F 44 °F (2003)
Growing Degree Days 14 (Base 50)    
Moisture  
Dew Point 54 °F    
Average Humidity 65    
Maximum Humidity 88    
Minimum Humidity 46    
Precipitation  
Precipitation 0.00 in 0.04 in - ()
Sea Level Pressure  
Sea Level Pressure 29.88 in    
Wind  
Wind Speed 9 mph ()    
Max Wind Speed 15 mph    
Max Gust Speed 24 mph    
Visibility 6.7 miles    
Events      
Averages and records for this station are not official NWS values.
T = Trace of Precipitation, MM = Missing Value Source: Averaged Metar Reports

Daily Weather History Graph

Daily Weather History Graph

Search for Another Location

Airport:

Trip Planner

Search our weather history database for the weather conditions in past years. The results will help you decide how hot, cold, wet, or windy it might be!

Date:

Astronomy

Apr. 16, 2012 Rise Set
Actual Time 6:35 AM EEST 7:52 PM EEST
Civil Twilight 6:07 AM EEST 8:19 PM EEST
Nautical Twilight 5:34 AM EEST 8:53 PM EEST
Astronomical Twilight 4:59 AM EEST 9:27 PM EEST
Moon 3:51 AM EEST (4/16) 3:29 PM EEST (4/16)
Length of Visible Light 14h 12m
Length of Day
13h 16m
Waning Crescent, 21% of the Moon is Illuminated
Apr 16
Waning Crescent
Apr 21
New
Apr 29
First Quarter
May 6
Full
May 13
Last Quarter

Hourly Weather History & Observations

Time (EEST) Temp. Dew Point Humidity Pressure Visibility Wind Dir Wind Speed Gust Speed Precip Events Conditions
6:20 AM 59.0 °F 53.6 °F 82% 29.80 in 6.2 mi SSW 11.5 mph - N/A   Partly Cloudy
6:50 AM 59.0 °F 55.4 °F 88% 29.83 in 6.2 mi SSW 9.2 mph - N/A   Partly Cloudy
7:20 AM 60.8 °F 53.6 °F 77% 29.83 in 6.2 mi SW 5.8 mph - N/A   Partly Cloudy
7:50 AM 60.8 °F 53.6 °F 77% 29.83 in 6.2 mi SW 8.1 mph - N/A   Partly Cloudy
8:20 AM 60.8 °F 53.6 °F 77% 29.83 in 6.2 mi South 11.5 mph - N/A   Scattered Clouds
8:50 AM 62.6 °F 55.4 °F 77% 29.86 in 6.2 mi SSE 5.8 mph - N/A   Scattered Clouds
9:00 AM 63 °F 55 °F 69% 29.86 in 9 mi SSE 5.8 mph - -   Scattered Clouds
9:20 AM 62.6 °F 55.4 °F 77% 29.86 in 6.2 mi SSE 5.8 mph - N/A   Scattered Clouds
9:50 AM 64.4 °F 57.2 °F 77% 29.86 in 6.2 mi ESE 10.4 mph - N/A   Scattered Clouds
10:20 AM 66.2 °F 57.2 °F 73% 29.86 in 6.2 mi ESE 10.4 mph - N/A   Scattered Clouds
10:50 AM 66.2 °F 55.4 °F 68% 29.89 in 6.2 mi SSE 12.7 mph - N/A   Scattered Clouds
11:20 AM 66.2 °F 53.6 °F 64% 29.89 in 6.2 mi SSE 15.0 mph - N/A   Scattered Clouds
12:20 PM 68.0 °F 53.6 °F 60% 29.89 in 6.2 mi SSW 15.0 mph - N/A   Scattered Clouds
12:50 PM 68.0 °F 53.6 °F 60% 29.89 in 6.2 mi SSW 13.8 mph - N/A   Scattered Clouds
1:20 PM 68.0 °F 53.6 °F 60% 29.89 in 6.2 mi SSW 13.8 mph - N/A   Scattered Clouds
1:50 PM 69.8 °F 55.4 °F 60% 29.89 in 6.2 mi South 13.8 mph - N/A   Partly Cloudy
2:20 PM 69.8 °F 55.4 °F 60% 29.89 in 6.2 mi South 13.8 mph - N/A   Partly Cloudy
2:50 PM 69.8 °F 53.6 °F 56% 29.89 in 6.2 mi SSE 12.7 mph 24.2 mph N/A   Partly Cloudy
3:00 PM 70 °F 54 °F 46% 29.89 in 12 mi SSE 12.7 mph - -   Scattered Clouds
3:20 PM 69.8 °F 53.6 °F 56% 29.89 in 6.2 mi South 11.5 mph 23.0 mph N/A   Partly Cloudy
3:50 PM 69.8 °F 53.6 °F 56% 29.89 in 6.2 mi SSW 11.5 mph - N/A   Partly Cloudy
4:20 PM 69.8 °F 53.6 °F 56% 29.89 in 6.2 mi South 11.5 mph - N/A   Partly Cloudy
4:50 PM 69.8 °F 53.6 °F 56% 29.89 in 6.2 mi South 11.5 mph - N/A   Partly Cloudy
5:20 PM 69.8 °F 53.6 °F 56% 29.89 in 6.2 mi SSW 10.4 mph - N/A   Partly Cloudy
5:50 PM 68.0 °F 53.6 °F 60% 29.89 in - South 8.1 mph - N/A   Clear
6:20 PM 68.0 °F 53.6 °F 60% 29.89 in - South 8.1 mph - N/A   Clear
6:50 PM 66.2 °F 50.0 °F 56% 29.89 in - SSW 8.1 mph - N/A   Clear
7:20 PM 64.4 °F 50.0 °F 59% 29.89 in - Variable 3.5 mph - N/A   Clear
7:50 PM 64.4 °F 51.8 °F 64% 29.92 in - Variable 3.5 mph - N/A   Clear
8:20 PM 64.4 °F 51.8 °F 64% 29.92 in - SSE 4.6 mph - N/A   Clear
8:50 PM 64.4 °F 53.6 °F 68% 29.92 in - SE 5.8 mph - N/A   Clear
9:00 PM 64 °F 53 °F 60% 29.93 in 9 mi SE 5.8 mph - -   Clear
9:20 PM 64.4 °F 53.6 °F 68% 29.92 in - SSE 8.1 mph - N/A   Clear
11:50 PM 62.6 °F 51.8 °F 68% 29.92 in - South 13.8 mph - N/A   Clear